| time (UTC) | temp C | wind direction | speed KPH | gust KPH | rain 1hr cm | rain 24hr cm | rain mn cm | humidity % | barometer mb |
| 20260505063030 | 13 | 175 | 8.0 | 24.1 | 0.00 | 0.00 | 0.00 | 90 | 1010.2 |
| 20260505061527 | 13 | 257 | 12.9 | 25.7 | 0.00 | 0.00 | 0.00 | 91 | 1010.2 |
| 20260505060037 | 12 | 242 | 8.0 | 20.9 | 0.00 | 0.00 | 0.00 | 91 | 1010.3 |
| 20260505054521 | 12 | 190 | 12.9 | 27.4 | 0.00 | 0.00 | 0.00 | 92 | 1010.5 |
| 20260505053018 | 11 | 233 | 12.9 | 24.1 | 0.00 | 0.00 | 0.00 | 92 | 1010.5 |
| 20260505051523 | 11 | 230 | 14.5 | 25.7 | 0.00 | 0.00 | 0.00 | 91 | 1010.8 |
| 20260505041508 | 11 | 248 | 9.7 | 22.5 | 0.00 | 0.00 | 0.00 | 92 | 1011.0 |
| 20260505040003 | 11 | 219 | 8.0 | 19.3 | 0.00 | 0.00 | 0.00 | 92 | 1011.1 |
| 20260505034502 | 11 | 184 | 9.7 | 17.7 | 0.00 | 0.00 | 0.00 | 92 | 1011.1 |
| 20260505033002 | 11 | 210 | 8.0 | 19.3 | 0.00 | 0.00 | 0.00 | 92 | 1011.1 |
| 20260505031502 | 11 | 248 | 9.7 | 22.5 | 0.00 | 0.00 | 0.00 | 92 | 1011.3 |
| 20260505030100 | 11 | 221 | 11.3 | 19.3 | 0.00 | 0.00 | 0.00 | 91 | 1011.2 |
| 20260505024608 | 12 | 238 | 11.3 | 22.5 | 0.00 | 0.00 | 0.00 | 90 | 1011.3 |
| 20260505023104 | 12 | 198 | 9.7 | 25.7 | 0.00 | 0.00 | 0.00 | 90 | 1011.3 |
| 20260505021559 | 12 | 191 | 12.9 | 27.4 | 0.00 | 0.00 | 0.00 | 89 | 1011.5 |
| 20260505020058 | 12 | 248 | 16.1 | 27.4 | 0.00 | 0.00 | 0.00 | 87 | 1011.5 |
| 20260505014558 | 12 | 263 | 11.3 | 27.4 | 0.00 | 0.00 | 0.00 | 86 | 1011.2 |
| 20260505013125 | 13 | 203 | 11.3 | 27.4 | 0.00 | 0.00 | 0.00 | 85 | 1011.2 |
| 20260505011618 | 13 | 238 | 12.9 | 24.1 | 0.00 | 0.00 | 0.00 | 85 | 1011.1 |
| 20260505010110 | 12 | 222 | 8.0 | 19.3 | 0.00 | 0.00 | 0.00 | 87 | 1010.9 |
| 20260505004556 | 12 | 238 | 8.0 | 20.9 | 0.00 | 0.00 | 0.00 | 87 | 1010.8 |
| 20260505003102 | 12 | 236 | 9.7 | 25.7 | 0.00 | 0.00 | 0.00 | 88 | 1010.6 |
| 20260505001555 | 12 | 225 | 11.3 | 25.7 | 0.00 | 0.00 | 0.00 | 89 | 1010.5 |
| 20260505000105 | 12 | 240 | 11.3 | 24.1 | 0.00 | 0.00 | 0.00 | 89 | 1010.4 |
| 20260504234554 | 12 | 194 | 12.9 | 27.4 | 0.00 | 0.00 | 0.00 | 89 | 1010.3 |
| 20260504233101 | 12 | 214 | 11.3 | 24.1 | 0.00 | 0.00 | 0.00 | 87 | 1010.3 |
| 20260504231553 | 12 | 232 | 14.5 | 27.4 | 0.00 | 0.00 | 0.00 | 86 | 1010.2 |
| 20260504230059 | 12 | 148 | 14.5 | 30.6 | 0.00 | 0.00 | 0.00 | 86 | 1010.1 |
| 20260504224551 | 12 | 198 | 14.5 | 27.4 | 0.00 | 0.00 | 0.00 | 85 | 1010.1 |
| 20260504223058 | 13 | 200 | 14.5 | 27.4 | 0.00 | 0.00 | 0.00 | 85 | 1010.1 |
| 20260504221550 | 13 | 230 | 14.5 | 32.2 | 0.00 | 0.00 | 0.00 | 84 | 1010.0 |
| 20260504220049 | 13 | 212 | 20.9 | 32.2 | 0.00 | 0.00 | 0.00 | 85 | 1010.0 |
| 20260504214559 | 13 | 266 | 17.7 | 40.2 | 0.00 | 0.00 | 0.00 | 84 | 1009.9 |
| 20260504213056 | 13 | 219 | 14.5 | 30.6 | 0.00 | 0.00 | 0.00 | 83 | 1010.0 |
| 20260504211552 | 13 | 206 | 19.3 | 33.8 | 0.00 | 0.00 | 0.00 | 83 | 1010.0 |
| 20260504210146 | 13 | 194 | 17.7 | 30.6 | 0.00 | 0.00 | 0.00 | 83 | 1010.1 |
| 20260504204545 | 13 | 182 | 22.5 | 33.8 | 0.00 | 0.00 | 0.00 | 83 | 1010.1 |
| 20260504203043 | 13 | 197 | 17.7 | 32.2 | 0.00 | 0.00 | 0.00 | 84 | 1010.2 |
| 20260504201557 | 13 | 204 | 17.7 | 32.2 | 0.00 | 0.00 | 0.00 | 83 | 1010.3 |
| 20260504200042 | 13 | 243 | 20.9 | 35.4 | 0.00 | 0.00 | 0.00 | 83 | 1010.4 |
| 20260504194546 | 13 | 219 | 20.9 | 32.2 | 0.00 | 0.00 | 0.00 | 82 | 1010.5 |
| 20260504193037 | 13 | 233 | 19.3 | 33.8 | 0.00 | 0.00 | 0.00 | 81 | 1010.6 |
| 20260504191539 | 13 | 160 | 17.7 | 33.8 | 0.00 | 0.00 | 0.00 | 80 | 1010.8 |
| 20260504190030 | 13 | 157 | 19.3 | 32.2 | 0.00 | 0.00 | 0.00 | 80 | 1011.0 |
| 20260504184533 | 14 | 192 | 20.9 | 32.2 | 0.00 | 0.00 | 0.00 | 78 | 1011.3 |
| 20260504183027 | 14 | 218 | 20.9 | 32.2 | 0.00 | 0.00 | 0.00 | 78 | 1011.4 |
| 20260504181531 | 14 | 177 | 16.1 | 29.0 | 0.00 | 0.00 | 0.00 | 79 | 1011.4 |
| 20260504180024 | 13 | 203 | 19.3 | 37.0 | 0.00 | 0.00 | 0.00 | 79 | 1011.8 |
| 20260504174522 | 13 | 179 | 17.7 | 32.2 | 0.00 | 0.00 | 0.00 | 80 | 1012.0 |
| 20260504173021 | 13 | 205 | 17.7 | 32.2 | 0.00 | 0.00 | 0.00 | 80 | 1012.0 |
| 20260504171519 | 13 | 232 | 19.3 | 32.2 | 0.00 | 0.00 | 0.00 | 81 | 1012.2 |
| 20260504140111 | 13 | 168 | 14.5 | 29.0 | 0.00 | 0.00 | 0.00 | 79 | 1013.7 |
| 20260504081519 | 11 | 266 | 16.1 | 24.1 | 0.00 | 0.00 | 0.00 | 75 | 1014.6 |